Temp
29 29 28 29 30 31 32 33 31 27 29 36 34 41 41 42 44 45 47 49 48 48 48 49 51 52 52 53 53 54 57 59 61 63 64 65 65 66
29 28 29 30 30 31 31 34 32 29 26 33 34 37 40 42 43 44 45 47 48 47 47 47 47 48 49 50 50 50 52 55 57 59 61 62 63 64
28 28 29 30 29 29 32 30 29 29 26 31 34 37 37 36 37 40 44 47 50 47 46 45 44 44 45 46 47 48 49 51 53 55 57 60 62 63
27 28 28 30 28 29 31 29 28 31 28 25 31 31 32 35 35 37 41 46 46 46 44 44 44 43 43 43 43 43 44 46 48 50 52 55 58 60
26 26 27 27 26 28 29 28 28 30 29 27 27 30 31 32 31 34 37 39 44 44 42 43 43 42 42 42 42 42 43 43 44 45 45 46 48 51
27 27 27 25 26 27 27 26 26 26 27 26 26 26 28 29 30 28 28 35 34 37 38 39 40 41 41 40 41 41 41 41 42 42 41 40 41 44
25 26 27 27 28 28 26 24 24 23 23 23 23 24 24 23 22 25 27 30 31 27 29 35 37 37 38 39 39 40 39 40 40 40 40 40 39 40
21 22 25 25 23 25 26 25 25 21 20 19 20 19 21 21 22 23 25 29 25 28 25 32 34 34 36 37 39 38 39 39 39 39 39 39 39 39
14 16 21 23 21 19 20 20 20 23 24 20 18 17 19 20 20 22 22 23 25 22 23 28 30 31 33 34 36 37 38 38 38 38 37 37 37 38
14 14 12 16 22 17 15 13 12 13 19 21 19 19 21 22 20 21 22 22 28 23 19 19 26 27 32 31 34 35 34 36 37 37 37 36 36 37
13 17 15 15 26 23 13 11 10 11 16 22 23 23 22 24 23 20 17 17 19 19 18 16 23 22 30 29 29 33 33 32 34 35 36 36 35 35
15 14 24 23 25 23 13 12 8 8 8 10 13 15 16 16 20 16 16 13 13 13 15 14 18 19 24 30 29 28 29 31 31 32 34 35 35 32
10 11 13 24 23 21 19 13 12 9 8 9 11 13 14 13 13 15 15 14 11 11 15 15 16 16 18 23 26 25 25 25 26 27 30 32 34 34
8 10 13 20 20 19 16 16 14 8 7 7 7 7 10 11 12 13 14 14 14 14 15 15 13 14 16 19 17 20 21 25 23 22 24 29 31 32
12 16 16 15 14 11 16 13 7 6 4 3 3 4 8 11 13 14 15 15 15 15 16 15 14 14 15 16 14 14 15 19 21 19 21 24 26 27
8 6 7 12 7 7 7 7 6 6 5 3 4 6 10 11 12 13 12 12 11 12 15 15 15 15 14 15 14 12 14 13 17 18 18 22 25 28
7 6 5 5 5 5 5 5 5 6 5 5 4 5 7 10 11 14 13 12 9 9 9 13 15 16 16 13 12 12 12 13 15 15 17 17 22 25
7 2 0 -0 3 4 3 3 3 3 4 5 3 4 4 7 9 11 12 11 10 10 10 12 12 12 13 15 19 12 12 12 14 15 16 15 17 22
3 0 -3 -2 2 3 2 2 0 1 3 2 -0 -0 1 5 7 7 8 9 9 10 11 12 11 9 5 2 12 19 11 12 12 13 16 16 15 19
4 1 -1 1 2 1 -0 -1 -2 -3 -3 -2 -3 -3 -5 2 3 4 5 5 8 9 9 11 10 10 7 5 6 11 17 12 12 12 13 17 20 24
4 2 0 1 1 0 -6 -8 -10 -8 -8 -9 -6 -6 -10 -2 0 2 2 1 5 8 6 7 10 12 14 13 6 7 11 17 17 14 15 14 14 16
1 1 1 -1 -2 -2 -7 -12 -7 -8 -6 -5 -7 -9 -10 -4 -2 -1 0 2 5 7 7 10 12 12 11 8 5 5 8 11 16 18 19 18 14 10
-3 -0 -3 -5 -6 -5 -2 -7 -8 -10 -8 -7 -7 -6 -10 -6 -2 -1 0 2 5 5 6 7 9 10 9 8 5 5 5 7 10 10 14 18 20 20
MSLP
1024.46 1024.18 1023.41 1023.04 1023.03 1022.68 1022.14 1021.48 1020.76 1019.48 1018.32 1017.10 1017.12 1016.50 1016.24 1015.56 1014.70 1013.77 1013.12 1012.48 1012.04 1011.79 1011.32 1011.08 1010.81 1010.36 1009.98 1009.68 1009.47 1009.32 1009.00 1008.76 1008.57 1008.40 1008.52 1008.61 1008.93 1009.16
1024.90 1024.55 1024.00 1023.35 1023.19 1022.92 1022.52 1021.92 1021.59 1021.09 1020.07 1018.63 1017.83 1017.15 1016.28 1015.35 1014.35 1013.66 1012.95 1012.22 1011.68 1011.20 1010.90 1010.70 1010.49 1010.11 1009.62 1009.26 1009.07 1008.70 1008.40 1008.24 1008.08 1008.08 1007.94 1008.02 1006.83 1007.93
1025.25 1025.04 1024.30 1023.80 1023.54 1023.22 1022.85 1022.71 1022.18 1021.65 1020.73 1019.13 1018.74 1017.58 1016.72 1015.96 1014.95 1013.96 1012.85 1011.89 1011.16 1011.11 1011.03 1010.84 1010.50 1009.80 1009.24 1008.89 1008.53 1008.20 1007.90 1007.68 1007.50 1007.58 1007.18 1007.33 1007.25 1007.16
1025.54 1025.47 1024.93 1024.21 1024.06 1023.56 1023.12 1022.96 1022.53 1021.77 1021.12 1020.00 1019.03 1018.45 1017.54 1016.50 1015.63 1014.42 1013.24 1012.16 1011.77 1011.34 1011.35 1010.92 1010.66 1010.19 1009.77 1009.38 1008.63 1008.03 1007.60 1007.40 1007.19 1007.19 1007.08 1006.86 1006.66 1006.56
1026.06 1026.00 1025.42 1024.80 1024.57 1023.89 1023.43 1023.24 1022.83 1022.08 1021.41 1020.61 1019.70 1019.16 1018.34 1017.32 1015.70 1014.88 1013.95 1013.03 1012.19 1011.91 1011.59 1011.21 1010.90 1010.62 1010.23 1009.83 1009.02 1008.30 1007.91 1007.60 1007.64 1007.19 1007.23 1007.06 1007.04 1006.94
1026.60 1026.22 1025.71 1025.31 1024.92 1024.36 1023.86 1023.74 1023.20 1022.40 1021.71 1021.01 1020.26 1019.64 1018.91 1017.98 1016.83 1015.56 1014.30 1013.51 1013.00 1012.74 1012.10 1011.63 1011.31 1011.06 1010.74 1010.32 1009.64 1009.19 1008.58 1008.45 1007.93 1007.73 1007.53 1007.57 1007.15 1006.91
1027.08 1026.68 1025.99 1025.74 1025.33 1024.73 1024.38 1024.23 1023.68 1022.96 1022.22 1021.52 1020.99 1020.47 1019.68 1018.65 1017.77 1016.86 1015.47 1014.00 1013.85 1014.04 1013.15 1012.26 1011.88 1011.56 1011.22 1010.80 1010.40 1009.88 1009.40 1008.93 1008.49 1008.28 1007.89 1007.98 1007.52 1007.06
1027.80 1027.19 1026.57 1026.44 1026.32 1025.74 1025.19 1024.75 1024.24 1023.55 1023.11 1022.86 1022.53 1021.91 1021.11 1020.40 1019.26 1018.00 1016.72 1015.07 1015.00 1015.23 1014.87 1013.48 1012.86 1012.53 1012.11 1011.64 1011.35 1010.77 1010.26 1009.76 1009.31 1009.12 1008.47 1008.64 1008.02 1007.46
1028.38 1027.73 1027.35 1026.86 1026.72 1026.68 1026.25 1025.85 1025.39 1024.61 1024.17 1024.09 1023.72 1023.20 1022.38 1021.53 1020.23 1018.66 1017.87 1017.21 1017.03 1017.31 1015.98 1014.45 1013.94 1013.28 1013.17 1012.76 1012.25 1011.64 1011.05 1010.51 1010.20 1009.73 1009.44 1009.23 1008.65 1008.25
1028.84 1028.34 1027.87 1027.31 1026.63 1026.99 1026.76 1026.57 1026.32 1026.01 1025.07 1024.65 1024.42 1023.88 1023.16 1022.16 1021.37 1020.14 1019.13 1017.85 1017.21 1017.77 1017.60 1016.40 1015.14 1014.31 1013.82 1013.76 1013.25 1012.75 1012.31 1011.59 1011.29 1010.59 1010.21 1010.01 1009.21 1008.98
1029.33 1028.71 1028.28 1027.70 1026.86 1027.18 1027.19 1027.16 1026.93 1026.66 1026.33 1025.48 1024.89 1024.35 1023.92 1022.88 1022.01 1020.84 1019.72 1019.09 1018.55 1018.79 1019.05 1018.39 1016.58 1015.58 1014.49 1014.30 1014.14 1013.74 1013.23 1012.86 1012.02 1011.38 1011.43 1010.57 1010.05 1009.31
1029.76 1029.38 1028.21 1027.87 1027.66 1027.47 1027.78 1027.62 1027.45 1027.56 1027.05 1026.34 1025.68 1025.05 1024.68 1024.07 1023.09 1022.64 1022.16 1021.28 1020.80 1020.27 1020.55 1019.86 1018.11 1017.31 1015.62 1015.00 1015.09 1014.85 1014.39 1014.03 1013.40 1012.77 1012.03 1011.11 1010.44 1009.94
1030.73 1030.43 1029.83 1028.60 1028.44 1028.35 1028.29 1028.18 1028.12 1028.36 1027.68 1027.09 1026.46 1025.90 1025.29 1024.83 1024.28 1023.83 1023.38 1022.99 1022.73 1022.43 1022.21 1020.84 1019.74 1018.67 1017.82 1016.62 1015.93 1015.91 1015.48 1015.00 1014.39 1013.77 1013.10 1012.08 1011.35 1010.53
1031.34 1031.12 1030.63 1030.01 1029.62 1029.27 1029.30 1029.04 1028.94 1028.85 1028.43 1027.96 1027.47 1026.97 1026.26 1025.77 1025.28 1024.76 1024.35 1023.97 1023.78 1023.56 1022.81 1021.84 1021.13 1020.42 1019.42 1018.30 1017.91 1017.18 1016.50 1015.97 1015.63 1014.87 1014.08 1013.11 1012.31 1011.73
1031.48 1031.10 1031.28 1031.23 1031.15 1031.02 1030.10 1030.10 1030.13 1029.74 1029.48 1029.02 1028.76 1028.35 1027.66 1026.99 1026.27 1025.39 1024.80 1024.27 1023.92 1023.48 1022.92 1022.40 1021.94 1021.15 1020.51 1020.20 1019.77 1019.14 1017.71 1016.85 1016.73 1016.22 1015.15 1014.02 1013.05 1012.27
1032.56 1032.61 1032.46 1032.04 1032.06 1031.83 1031.50 1031.20 1030.88 1030.56 1030.31 1030.06 1029.75 1029.13 1028.18 1027.27 1026.67 1026.15 1025.52 1024.92 1024.35 1023.94 1023.55 1023.03 1022.41 1021.87 1021.44 1021.05 1020.89 1020.28 1019.76 1019.03 1017.98 1017.21 1016.15 1014.94 1013.90 1013.26
1033.01 1033.06 1032.98 1032.68 1032.47 1032.32 1032.22 1032.08 1031.83 1031.44 1031.11 1030.88 1030.35 1029.72 1029.06 1028.33 1027.62 1027.03 1026.42 1025.95 1025.58 1025.04 1024.32 1023.76 1023.18 1022.47 1022.08 1021.93 1021.24 1021.11 1020.53 1019.83 1019.17 1018.20 1016.84 1015.62 1014.56 1013.91
1033.22 1033.67 1033.79 1033.72 1033.53 1033.43 1033.28 1033.07 1032.85 1032.49 1032.16 1031.81 1031.50 1030.98 1030.35 1029.49 1028.74 1028.06 1027.52 1026.93 1026.50 1026.03 1025.43 1024.77 1023.97 1023.10 1022.53 1022.12 1021.72 1021.64 1021.23 1020.55 1019.67 1018.69 1017.90 1016.87 1015.20 1014.33
1033.88 1034.29 1034.41 1034.40 1034.25 1034.21 1034.17 1034.05 1033.84 1033.60 1033.20 1032.85 1032.54 1032.16 1031.59 1030.65 1029.81 1029.19 1028.71 1028.07 1027.44 1026.95 1026.46 1025.88 1025.05 1024.31 1023.57 1023.31 1022.60 1022.34 1022.11 1021.27 1020.40 1019.25 1018.35 1017.38 1016.40 1014.92
1034.32 1034.71 1034.96 1035.00 1034.98 1035.02 1034.98 1034.88 1034.70 1034.40 1034.01 1033.74 1033.49 1033.14 1032.64 1031.72 1030.92 1030.25 1029.73 1029.22 1028.45 1027.83 1027.20 1026.66 1026.01 1025.52 1024.95 1024.74 1024.09 1023.15 1022.65 1021.74 1020.85 1019.81 1018.85 1017.70 1016.68 1015.22
1034.65 1035.04 1035.32 1035.45 1035.52 1035.57 1035.59 1035.46 1035.31 1035.09 1034.83 1034.47 1034.23 1033.83 1033.43 1032.69 1031.90 1031.32 1030.73 1030.12 1029.40 1028.71 1028.03 1027.47 1027.11 1026.67 1025.84 1025.16 1024.43 1023.30 1022.65 1022.24 1021.55 1020.37 1019.16 1018.04 1016.84 1015.55
1035.03 1035.30 1035.61 1035.85 1035.89 1035.71 1035.61 1035.61 1035.49 1035.28 1035.08 1034.79 1034.49 1034.14 1033.76 1033.19 1032.55 1032.02 1031.44 1030.78 1030.01 1029.44 1028.85 1028.27 1027.54 1026.90 1026.20 1025.74 1025.36 1024.61 1023.38 1022.28 1021.33 1020.60 1019.98 1019.42 1018.27 1016.85
1035.28 1035.51 1035.77 1036.08 1036.11 1035.96 1035.62 1035.98 1035.89 1035.73 1035.52 1035.29 1035.00 1034.54 1034.01 1033.56 1033.03 1032.50 1031.93 1031.32 1030.66 1029.97 1029.39 1028.66 1028.06 1027.53 1026.93 1026.47 1026.04 1025.30 1024.36 1023.17 1021.92 1020.50 1019.59 1019.13 1018.37 1017.71
Wind_Speed
7 7 5 5 5 6 6 5 6 7 9 6 7 10 11 11 15 17 15 18 18 16 17 15 15 15 15 15 15 15 15 17 15 23 27 30 31 31
6 8 7 5 5 6 6 6 5 6 7 8 11 14 13 12 14 14 15 22 16 16 14 11 14 17 17 16 17 17 16 16 17 18 19 21 28 27
7 8 9 7 6 6 6 6 6 5 7 10 10 12 15 14 14 13 12 11 4 9 13 14 17 14 12 12 12 13 15 16 16 17 17 20 23 26
8 9 10 8 8 8 6 8 7 8 7 12 10 10 13 14 14 13 11 10 8 11 14 11 13 18 17 16 15 16 13 11 11 11 13 14 19 23
8 8 9 9 8 8 7 8 7 7 7 7 8 9 9 12 14 12 11 10 8 13 13 12 12 18 19 19 20 22 21 19 11 6 8 10 13 13
8 8 9 8 8 9 8 8 9 8 8 8 8 10 10 13 10 10 11 8 6 10 10 13 14 17 20 20 24 24 24 23 22 20 19 18 15 13
9 9 9 13 14 11 6 7 10 8 8 9 10 9 11 13 13 10 10 10 4 11 8 8 7 7 11 18 20 25 25 25 25 24 23 21 18 18
8 9 8 12 12 15 15 14 13 9 11 9 9 11 13 12 12 10 10 8 6 11 9 7 7 8 8 10 24 25 26 26 26 25 25 24 21 18
5 6 7 6 11 9 13 15 15 18 16 8 10 9 11 13 14 13 13 8 6 10 8 4 8 4 8 11 26 28 26 26 27 27 26 25 22 18
6 6 4 7 11 10 8 8 7 9 10 8 8 8 10 11 13 10 11 8 3 8 15 5 8 4 4 9 25 26 29 27 25 26 26 26 23 19
6 8 3 6 18 19 8 8 8 10 11 17 18 20 21 23 22 10 13 11 4 5 12 6 7 6 3 9 11 24 26 27 28 27 25 25 23 18
7 9 16 13 18 19 9 8 9 9 9 10 9 12 14 15 23 14 10 10 7 5 9 9 8 7 4 4 8 11 10 25 24 26 26 27 27 9
5 5 5 17 18 18 17 9 11 8 9 7 8 8 9 11 10 10 10 8 9 5 11 8 6 6 5 5 5 11 10 12 12 14 22 25 25 22
3 4 6 15 16 19 13 20 19 9 7 7 8 9 10 10 10 9 10 7 4 6 9 10 4 7 6 5 7 9 11 8 12 12 12 16 20 20
3 9 14 15 16 11 19 19 11 8 7 8 8 7 8 7 8 9 9 7 7 9 10 12 8 8 5 8 6 9 9 8 12 12 12 12 10 10
6 6 6 7 6 7 8 10 8 8 7 7 6 6 7 8 9 9 8 10 7 10 13 14 13 9 6 4 8 9 9 9 13 12 12 10 9 8
4 4 5 5 7 7 7 8 8 8 8 7 8 8 8 8 9 9 9 8 9 11 12 12 14 10 5 5 7 9 10 10 11 12 13 11 9 9
5 4 4 4 5 6 6 7 8 9 8 8 8 8 8 9 9 9 9 9 9 10 11 10 11 8 7 6 13 10 10 11 11 13 11 10 10 10
5 4 3 3 5 6 6 6 6 7 7 7 7 8 7 7 8 9 9 9 10 10 10 10 11 10 11 9 6 16 11 10 12 12 11 10 10 12
5 4 3 3 4 5 5 5 5 6 6 6 6 7 6 7 7 8 8 8 10 10 10 10 11 11 10 10 8 9 20 11 11 10 10 10 10 18
4 4 3 3 3 4 3 2 3 3 4 3 5 5 5 5 6 7 7 9 9 9 10 10 10 13 8 8 7 10 11 20 17 13 11 10 11 10
3 3 3 2 2 2 2 3 3 4 5 5 4 3 4 4 5 6 6 7 8 7 8 7 10 9 9 11 10 13 12 13 17 19 15 19 12 10
3 3 2 1 1 0 2 2 2 2 3 4 5 5 4 5 5 5 5 6 6 6 8 7 8 7 9 9 10 10 15 14 13 13 12 25 25 23
Wind_Direction
9 4 12 359 337 326 322 329 330 328 327 336 331 336 321 311 305 305 303 299 301 295 293 298 302 310 308 301 297 286 273 270 264 234 224 223 224 223
8 360 2 357 354 345 333 358 349 338 304 334 319 320 322 327 312 308 301 294 286 286 298 322 327 317 310 304 297 292 285 269 260 254 242 241 228 225
17 0 15 3 360 350 351 345 345 340 307 316 321 334 329 337 331 325 308 310 313 343 356 1 7 351 315 306 318 311 298 287 274 260 251 244 232 228
28 15 17 3 3 352 9 357 347 332 332 323 330 339 338 339 328 321 327 332 334 16 359 352 22 26 26 26 33 31 7 303 277 279 282 263 244 242
19 14 22 7 6 351 11 359 348 339 343 334 332 339 336 340 333 342 344 332 339 6 354 21 25 34 32 28 33 37 36 35 11 346 314 307 301 280
21 16 25 10 9 1 20 6 358 358 358 353 354 346 345 346 336 339 341 346 5 4 347 16 26 39 36 32 35 36 37 34 40 36 34 23 7 328
22 13 21 27 23 22 26 16 6 13 9 6 3 353 352 352 354 333 329 318 98 26 336 15 20 24 33 35 36 35 35 34 34 29 30 18 16 9
14 9 13 35 31 27 36 31 30 24 25 14 6 360 355 348 342 340 346 355 5 20 334 19 2 28 30 33 36 38 36 35 34 30 25 15 12 13
356 5 5 13 44 24 31 38 32 25 40 21 14 8 352 354 345 352 355 345 50 7 349 360 360 27 30 29 27 32 31 34 32 30 27 18 14 14
7 339 0 350 37 36 20 24 20 16 17 24 16 19 4 6 5 351 347 326 85 36 10 348 351 331 54 34 26 26 27 27 27 30 27 21 20 15
2 355 55 6 35 35 22 22 19 21 8 27 31 31 25 22 25 8 16 15 8 16 14 326 348 325 1 39 22 21 26 21 21 23 24 25 21 19
13 6 11 42 33 39 26 25 28 3 353 354 9 17 17 15 21 25 15 20 5 356 357 343 343 347 340 30 30 10 6 15 15 15 12 20 22 22
27 5 343 32 41 38 39 37 39 6 357 9 10 17 18 16 13 11 16 29 22 21 342 350 343 343 345 322 356 4 358 11 6 5 4 8 16 20
25 11 13 41 34 47 41 41 34 16 16 17 20 13 12 11 5 3 8 10 19 23 352 5 355 353 342 354 360 348 350 19 5 358 351 351 3 9
35 58 51 45 44 26 41 35 23 23 23 28 18 3 350 344 358 7 12 3 15 18 13 13 6 348 9 37 0 354 351 341 2 354 347 344 348 356
42 34 20 37 30 32 28 26 20 21 23 20 7 349 351 5 16 10 12 8 15 13 13 13 7 5 7 26 25 6 4 356 342 348 339 337 337 353
57 37 32 24 27 22 21 23 17 17 20 14 12 9 8 9 11 11 15 16 25 10 6 8 6 0 7 360 23 12 355 351 347 341 344 339 337 343
61 54 32 14 33 30 23 19 21 19 20 20 19 17 12 12 12 16 17 18 19 14 12 4 3 11 16 1 18 10 360 349 345 341 343 336 329 337
82 60 34 22 38 35 27 23 22 18 15 24 21 15 6 14 17 21 17 16 19 17 16 7 9 11 11 7 335 12 355 347 342 340 341 337 323 319
89 84 57 41 55 43 32 27 19 13 18 20 21 14 2 9 15 19 16 9 13 14 14 13 12 6 6 352 332 332 351 348 345 339 335 328 324 323
105 98 76 67 69 59 35 26 25 16 13 8 14 11 357 2 10 9 4 353 2 14 14 10 2 351 353 348 349 342 345 352 350 343 341 342 341 329
108 114 108 93 83 58 33 16 22 13 13 11 358 354 357 354 2 357 357 357 5 6 2 360 358 1 9 10 356 343 340 339 346 352 5 359 350 338
135 128 128 128 162 75 36 25 22 356 359 359 355 348 345 352 348 343 345 348 350 353 355 353 359 5 7 6 355 347 344 347 344 343 348 353 359 358